Regional Weather Roundup
Issued by NWS Kansas City/Pleasant Hill, MO

Home | Current Version | Previous Version | Graphics & Text | Print | Product List | Glossary Off
Versions: 1 2 3 4 5 6 7 8 9 10 11 12 13 14 15 16 17 18 19 20 21 22 23 24 25 26 27 28 29 30 31 32 33 34 35 36 37 38 39 40 41 42 43 44 45 46 47 48 49 50

000
ASUS43 KEAX 311804
RWREAX

WEATHER ROUNDUP FOR EASTERN KANSAS AND NORTHWEST MISSOURI
NATIONAL WEATHER SERVICE KANSAS CITY/PLEASANT HILL MO
1200 PM CST SAT JAN 31 2015

KSZ040-057-103>105-MOZ028-029-037-043-311900-
...KANSAS CITY METROPOLITAN AREA...

CITY           SKY/WX    TMP DP  RH WIND       PRES   REMARKS
K.C. INTL      LGT RAIN  38  38 100 SE8       30.19F FOG     WCI  32
6HR MIN TEMP:  34; 6HR MAX TEMP:  38; 6HR PCP:  0.35;

K.C. DOWNTOWN  LGT RAIN  40  38  93 S7        30.19F
6HR MIN TEMP:  36; 6HR MAX TEMP:  40; 6HR PCP:  0.11;

LEES SUMMIT    LGT RAIN  38  36  92 S7        30.20F FOG     WCI  33
6HR MIN TEMP:  33; 6HR MAX TEMP:  38; 6HR PCP:  0.24;

OLATHE - IXD   LGT RAIN  39  36  89 S15       30.18F WCI  31
6HR MIN TEMP:  34; 6HR MAX TEMP:  40; 6HR PCP:  0.15;

OLATHE - OJC   LGT RAIN  39  38  96 SE10      30.17F WCI  32
6HR MIN TEMP:  34; 6HR MAX TEMP:  39; 6HR PCP:  0.17;

LAWRENCE       LGT RAIN  40  37  89 S12       30.18F FOG     WCI  33

$$

MOZ001>008-011>017-020>025-030>033-038>040-044>046-053-054-311900-
...NORTHERN AND CENTRAL MISSOURI...

CITY           SKY/WX    TMP DP  RH WIND       PRES   REMARKS
ST. JOSEPH     LGT RAIN  37  36  96 SE9       30.19F FOG     WCI  30
6HR MIN TEMP:  33; 6HR MAX TEMP:  37; 6HR PCP:  0.36;

MOSBY          LGT RAIN  36  36 100 E6        30.20F WCI  31
WHITEMAN AFB   LGT RAIN  38  35  91 VRB3      30.22F FOG
6HR MIN TEMP:  33; 6HR MAX TEMP:  38; 6HR PCP:  0.11;

CLINTON        CLOUDY    37  36  93 S5        30.24F WCI  34
SEDALIA        LGT RAIN  39  34  82 SE7       30.24F WCI  34
6HR MIN TEMP:  34; 6HR MAX TEMP:  39; 6HR PCP:  0.08;

WARSAW         NOT AVBL
MARSHALL       MIX PCPN  39  39 100 S5        30.27F
CHILLICOTHE      N/A     37  36  96 S5        30.25F WCI  33
6HR MIN TEMP:  33; 6HR MAX TEMP:  37; 6HR PCP:  0.17;

KIRKSVILLE     LGT RAIN  34  34 100 S6        30.23F FOG     WCI  29
6HR MIN TEMP:  29; 6HR MAX TEMP:  34; 6HR PCP:  0.11;


$$

MOZ041-047>049-056>058-063>065-088>090-097-311900-
...EASTERN AND SOUTHERN MISSOURI...

CITY           SKY/WX    TMP DP  RH WIND       PRES   REMARKS
ST. LOUIS INTL CLOUDY    44  23  43 SW6       30.30F
6HR MIN TEMP:  32; 6HR MAX TEMP:  44;

SPIRIT OF STL  CLOUDY    43  23  45 SW7       30.29F
COLUMBIA       LGT RAIN  38  28  67 S6        30.27F WCI  33
JEFFERSON CITY CLOUDY    40  24  53 S3        30.29F
ROLLA          CLOUDY    41  26  55 SE3       30.25F
LEBANON        CLOUDY    39  30  70 SE8       30.25F WCI  34
OSAGE BEACH    CLOUDY    41  28  60 E5        30.25F
SPRINGFIELD    CLOUDY    43  22  43 SE15      30.20F
NEVADA         CLOUDY    39  36  87 SE6       30.21F WCI  35
JOPLIN         CLOUDY    46  21  37 SE9       30.19F
WEST PLAINS    CLOUDY    41  22  46 SE7       30.28F

$$

IAZ060-094-KSZ022-034>040-054-083-096-NEZ052-066-093-311900-
...KANSAS...SOUTHEAST NEBRASKA AND IOWA...

CITY           SKY/WX    TMP DP  RH WIND       PRES   REMARKS
TOPEKA         LGT RAIN  38  36  92 S8        30.18F FOG     WCI  32
6HR MIN TEMP:  35; 6HR MAX TEMP:  39; 6HR PCP:  0.18;

MANHATTAN      LGT RAIN  36  35  96 SE6       30.13F FOG     WCI  31
EMPORIA        LGT RAIN  37  36  96 S14       30.14F FOG     WCI  28
CHANUTE        LGT RAIN  41  35  79 SE8       30.18F
WICHITA        LGT RAIN  40  37  89 S14       30.10F FOG     WCI  32
OMAHA          LGT SNOW  35  33  92 S8        30.13F FOG     WCI  29
LINCOLN        LGT SNOW  33  32  96 S10       30.11F FOG     WCI  25
FALLS CITY     RAIN      35  34  96 SE15      30.16F FOG     WCI  25
LAMONI         LGT RAIN  37  36  96 S8        30.18F FOG     WCI  31
DES MOINES     DRIZZLE   40  34  79 SW9       30.16F WCI  34

$$




USA.gov is the U.S. government's official web portal to all federal, state and local government web resources and services.